Weather reports worldwide

Advertisment
Leuchars, United Kingdom (3171): temperature & dewpoint: 18.08.2017 00:00:00 - 24.08.2017 00:00:00 (BST)Leuchars, United Kingdom (3171): temperature -20cm & temperature -100cm: 18.08.2017 00:00:00 - 24.08.2017 00:00:00 (BST)Leuchars, United Kingdom (3171): wind speed & gusts: 18.08.2017 00:00:00 - 24.08.2017 00:00:00 (BST)Leuchars, United Kingdom (3171): wind direction: 18.08.2017 00:00:00 - 24.08.2017 00:00:00 (BST)Leuchars, United Kingdom (3171): reduced air pressure: 18.08.2017 00:00:00 - 24.08.2017 00:00:00 (BST)Leuchars, United Kingdom (3171): visibility: 18.08.2017 00:00:00 - 24.08.2017 00:00:00 (BST)Leuchars, United Kingdom (3171): sunshine duration: 18.08.2017 00:00:00 - 24.08.2017 00:00:00 (BST)Leuchars, United Kingdom (3171): precipitation: 18.08.2017 00:00:00 - 24.08.2017 00:00:00 (BST)
Date & Time tt [°C] td [°C] tt -20cm [°C] tt -100cm [°C] ff [km/h] ff [kn] fx [km/h] fx [kn] dd ppp [hPa] vv [km] sd [min] rr [mm]
24.08.2017 00:00:00 - - - - - - - - - - - - -
23.08.2017 23:00:00 12,8 10,8 - - 15 8 - - WSW 1009,6 10 0 0,0
23.08.2017 22:00:00 13,5 11,3 - - 18 10 - - W 1009,4 10 0 0,0
23.08.2017 21:00:00 14,9 11,7 - - 18 10 - - WSW 1009,2 10 0 0,0
23.08.2017 20:00:00 17,2 11,4 - - 21 11 - - WSW 1008,8 10 0 0,0
23.08.2017 19:00:00 19,6 11,0 - - 18 10 - - W 1008,6 10 18 0,0
23.08.2017 18:00:00 19,7 12,1 - - 24 13 - - W 1008,7 10 12 0,0
23.08.2017 17:00:00 17,9 15,7 - - 2 1 - - ENE 1008,8 9 6 0,0
23.08.2017 16:00:00 18,7 15,8 - - 9 5 - - ENE 1008,7 10 6 0,0
23.08.2017 15:00:00 19,2 16,2 - - 18 10 - - ESE 1009,0 10 30 0,0
23.08.2017 14:00:00 18,2 16,2 - - 9 5 - - E 1009,3 10 0 0,0
23.08.2017 13:00:00 17,9 16,6 - - 9 5 - - E 1009,2 6 0 0,0
23.08.2017 12:00:00 17,0 15,7 - - 15 8 - - ESE 1009,5 5 0 0,0
23.08.2017 11:00:00 16,3 15,1 - - 11 6 - - ESE 1009,6 6 0 0,0
23.08.2017 10:00:00 15,9 15,0 12,9 13,9 15 8 - - SE 1009,9 6 0 0,0
23.08.2017 09:00:00 15,1 14,6 - - 16 9 - - SSE 1010,1 5 0 3,8
23.08.2017 08:00:00 14,9 14,4 - - 22 12 - - SE 1010,3 2,4 0 1,8
23.08.2017 07:00:00 14,8 14,4 - - 21 11 - - SE 1010,5 4,4 0 0,0
23.08.2017 06:00:00 14,7 14,3 - - 26 14 - - ESE 1010,8 3,3 0 0,2
23.08.2017 05:00:00 14,7 14,3 - - 21 11 - - SE 1011,3 5 0 0,2
23.08.2017 04:00:00 15,1 14,3 - - 15 8 - - SE 1012,1 6 0 0,0
23.08.2017 03:00:00 15,3 14,5 - - 9 5 - - SE 1012,6 10 0 0,0
23.08.2017 02:00:00 15,1 14,4 - - 15 8 - - SE 1013,3 10 0 0,0
23.08.2017 01:00:00 14,9 14,3 - - 16 9 - - E 1013,8 8 - 0,0
23.08.2017 00:00:00 14,7 14,5 - - 11 6 - - E 1014,5 10 0 0,0
22.08.2017 23:00:00 14,7 14,6 - - 18 10 - - ESE 1015,2 7 0 0,0
22.08.2017 22:00:00 14,6 14,6 - - 18 10 - - E 1015,8 2,5 0 0,0
22.08.2017 21:00:00 14,7 14,7 - - 18 10 - - E 1016,4 0,4 0 0,0
22.08.2017 20:00:00 14,5 14,5 - - 15 8 - - E 1016,6 0,2 0 0,0
22.08.2017 19:00:00 14,6 14,5 - - 16 9 - - E 1016,9 0,3 0 0,0
22.08.2017 18:00:00 14,7 14,6 - - 16 9 - - E 1017,3 0,5 0 0,0
22.08.2017 17:00:00 15,0 14,7 - - 16 9 - - E 1017,7 0,3 0 0,0
22.08.2017 16:00:00 15,6 14,7 - - 18 10 - - E 1018,1 4,0 0 0,0
22.08.2017 15:00:00 15,7 14,7 - - 18 10 - - E 1018,5 5 0 0,0
22.08.2017 14:00:00 15,8 15,3 - - 15 8 - - E 1019,0 4,0 0 0,2
22.08.2017 13:00:00 15,5 14,6 - - 16 9 - - ENE 1019,4 3,0 0 0,2
22.08.2017 12:00:00 16,8 15,3 - - 15 8 - - E 1019,5 5 0 0,0
22.08.2017 11:00:00 15,4 14,2 - - 13 7 - - E 1019,8 5 0 0,0
22.08.2017 10:00:00 15,2 14,4 12,7 13,7 15 8 - - ENE 1019,8 11 0 0,0
22.08.2017 09:00:00 14,7 14,2 - - 11 6 - - ENE 1019,9 5 0 0,0
22.08.2017 08:00:00 14,4 14,2 - - 13 7 - - ENE 1019,7 7 0 0,0
22.08.2017 07:00:00 14,3 14,0 - - 9 5 - - ENE 1019,8 7 0 0,0
22.08.2017 06:00:00 14,3 14,1 - - 13 7 - - E 1019,6 7 0 0,0
22.08.2017 05:00:00 14,2 13,9 - - 16 9 - - E 1019,6 10 0 0,0
22.08.2017 04:00:00 14,1 13,8 - - 13 7 - - ENE 1019,9 10 0 0,0
22.08.2017 03:00:00 14,1 13,7 - - 11 6 - - ENE 1020,2 10 0 0,0
22.08.2017 02:00:00 14,1 13,6 - - 13 7 - - ENE 1019,8 10 0 0,0
22.08.2017 01:00:00 14,1 13,5 - - 13 7 - - ENE 1020,0 10 - 0,0
22.08.2017 00:00:00 14,2 13,4 - - 13 7 - - ENE 1020,2 10 0 0,0
21.08.2017 23:00:00 14,2 13,3 - - 11 6 - - ENE 1020,3 10 0 0,0
21.08.2017 22:00:00 14,1 13,2 - - 11 6 - - NE 1020,3 10 0 0,0
21.08.2017 21:00:00 14,1 13,1 - - 11 6 - - ENE 1020,3 10 0 0,0
21.08.2017 20:00:00 14,1 12,8 - - 11 6 - - ENE 1019,9 10 0 0,0
21.08.2017 19:00:00 14,7 12,6 - - 11 6 - - E 1020,1 10 0 0,0
21.08.2017 18:00:00 14,7 12,3 - - 15 8 - - E 1020,1 10 0 0,0
21.08.2017 17:00:00 15,2 12,4 - - 15 8 - - E 1020,3 10 0 0,0
21.08.2017 16:00:00 15,3 12,1 - - 18 10 - - E 1020,2 10 0 0,0
21.08.2017 15:00:00 15,3 12,1 - - 18 10 - - E 1020,3 10 42 0,0
21.08.2017 14:00:00 16,1 11,5 - - 21 11 - - E 1020,5 10 60 0,0
21.08.2017 13:00:00 16,2 11,2 - - 15 8 - - ESE 1020,8 10 42 0,0
21.08.2017 12:00:00 15,7 11,8 - - 13 7 - - ESE 1021,0 10 60 0,0
21.08.2017 11:00:00 15,5 11,5 - - 9 5 - - E 1021,2 24 60 0,0
21.08.2017 10:00:00 14,2 11,7 12,5 13,9 4 2 - - SSW 1021,7 10 30 0,0
21.08.2017 09:00:00 12,7 12,0 - - 2 1 - - N 1021,7 9 0 0,0
21.08.2017 08:00:00 11,2 11,1 - - 5 3 - - NNW 1021,5 9 0 0,0
21.08.2017 07:00:00 10,5 10,5 - - 4 2 - - W 1021,3 3,5 0 0,0
21.08.2017 06:00:00 9,3 9,3 - - 2 1 - - WSW 1021,4 1,0 0 0,0
21.08.2017 05:00:00 8,5 8,4 - - 5 3 - - W 1021,3 0,8 0 0,0
21.08.2017 04:00:00 7,1 6,8 - - 5 3 - - W 1021,4 10 0 0,0
21.08.2017 03:00:00 7,5 6,9 - - 5 3 - - W 1021,4 10 0 0,0
21.08.2017 02:00:00 8,4 7,7 - - 4 2 - - WNW 1021,5 10 0 0,0
21.08.2017 01:00:00 9,2 8,2 - - 8 4 - - W 1021,7 10 - 0,0
21.08.2017 00:00:00 10,4 9,3 - - 5 3 - - NW 1021,6 27 0 0,0
20.08.2017 23:00:00 12,0 9,7 - - 9 5 - - W 1021,0 10 0 0,0
20.08.2017 22:00:00 12,1 9,4 - - 5 3 - - W 1020,6 10 0 0,0
20.08.2017 21:00:00 13,3 9,9 - - 9 5 - - W 1020,6 10 0 0,0
20.08.2017 20:00:00 15,8 10,5 - - 11 6 - - W 1020,1 10 60 0,0
20.08.2017 19:00:00 17,8 11,0 - - 16 9 - - W 1020,0 10 60 0,0
20.08.2017 18:00:00 18,5 10,0 - - 13 7 - - WSW 1019,7 10 60 0,0
20.08.2017 17:00:00 18,9 10,1 - - 16 9 - - W 1019,8 10 48 0,0
20.08.2017 16:00:00 18,0 10,5 - - 15 8 - - WSW 1019,6 10 0 0,0
20.08.2017 15:00:00 18,2 9,2 - - 13 7 - - SW 1019,7 10 12 0,0
20.08.2017 14:00:00 18,0 8,9 - - 15 8 - - W 1019,6 10 24 0,0
20.08.2017 13:00:00 18,1 8,9 - - 11 6 - - WNW 1019,2 10 42 0,0
20.08.2017 12:00:00 17,8 9,8 - - 16 9 - - WNW 1018,9 10 60 0,0
20.08.2017 11:00:00 16,8 9,2 - - 15 8 - - WNW 1018,6 10 60 0,0
20.08.2017 10:00:00 16,1 9,7 12,7 13,9 18 10 - - WNW 1018,5 10 60 0,0
20.08.2017 09:00:00 14,8 9,5 - - 21 11 - - W 1017,8 30 60 0,0
20.08.2017 08:00:00 13,0 9,8 - - 15 8 - - W 1017,3 10 60 0,0
20.08.2017 07:00:00 11,4 8,8 - - 18 10 - - W 1016,6 10 6 0,0
20.08.2017 06:00:00 10,9 8,7 - - 22 12 - - W 1015,9 10 0 0,0
20.08.2017 05:00:00 12,1 8,9 - - 21 11 - - W 1015,4 10 0 0,0
20.08.2017 04:00:00 10,5 9,0 - - 21 11 - - WSW 1015,1 10 0 0,0
20.08.2017 03:00:00 10,4 8,7 - - 11 6 - - W 1014,7 10 0 0,0
20.08.2017 02:00:00 10,6 9,1 - - 21 11 - - WSW 1013,9 10 0 0,0
20.08.2017 01:00:00 13,0 9,6 - - 24 13 - - W 1013,5 10 - 0,0
20.08.2017 00:00:00 12,8 9,7 - - 18 10 - - W 1012,8 10 0 0,0
19.08.2017 23:00:00 14,1 9,8 - - 21 11 - - W 1012,2 10 0 0,0
19.08.2017 22:00:00 14,1 10,5 - - 21 11 - - W 1011,5 10 0 0,0
19.08.2017 21:00:00 15,7 10,2 - - 22 12 - - W 1010,5 10 0 0,0
19.08.2017 20:00:00 16,7 9,9 - - 28 15 - - WNW 1009,8 10 0 0,0
19.08.2017 19:00:00 16,8 11,0 - - 18 10 - - NW 1008,9 10 18 0,0
19.08.2017 18:00:00 18,0 12,2 - - 26 14 46 25 WNW 1007,7 10 36 0,2
19.08.2017 17:00:00 16,3 12,2 - - 34 18 52 28 W 1006,9 10 12 0,0
19.08.2017 16:00:00 17,8 10,9 - - 35 19 54 29 W 1005,9 10 24 0,0
19.08.2017 15:00:00 19,1 11,5 - - 39 21 55 30 W 1005,5 10 54 0,0
19.08.2017 14:00:00 18,5 11,0 - - 37 20 54 29 W 1005,2 10 24 0,0
19.08.2017 13:00:00 16,8 9,6 - - 37 20 55 30 W 1005,1 10 0 0,0
19.08.2017 12:00:00 16,9 9,6 - - 42 23 57 31 W 1004,7 10 30 0,0
19.08.2017 11:00:00 16,0 10,4 - - 39 21 54 29 WSW 1004,4 10 36 0,0
19.08.2017 10:00:00 15,1 9,1 12,7 14,0 37 20 55 30 W 1004,3 10 48 0,0
19.08.2017 09:00:00 13,2 9,0 - - 29 16 - - W 1004,4 10 60 0,0
19.08.2017 08:00:00 11,7 9,2 - - 31 17 - - WSW 1004,1 10 60 0,0
19.08.2017 07:00:00 10,1 8,4 - - 22 12 - - W 1004,3 29 24 0,0
19.08.2017 06:00:00 9,8 7,9 - - 22 12 - - WSW 1004,0 10 0 0,0
19.08.2017 05:00:00 9,8 7,7 - - 24 13 - - W 1003,8 10 0 0,0
19.08.2017 04:00:00 10,7 8,6 - - 22 12 - - W 1003,5 10 0 0,0
19.08.2017 03:00:00 10,8 9,1 - - 21 11 - - W 1002,9 10 0 0,0
19.08.2017 02:00:00 11,4 9,6 - - 18 10 - - W 1002,5 10 0 0,0
19.08.2017 01:00:00 11,6 10,4 - - 22 12 - - W 1001,8 10 - 0,0
19.08.2017 00:00:00 12,0 10,9 - - 18 10 - - WSW 1001,4 10 0 0,0
18.08.2017 23:00:00 11,6 10,4 - - 16 9 - - WSW 1001,0 10 0 0,0
18.08.2017 22:00:00 12,7 10,8 - - 24 13 - - W 1001,0 10 0 0,0
18.08.2017 21:00:00 12,5 10,6 - - 22 12 - - WSW 1000,7 10 0 0,0
18.08.2017 20:00:00 13,3 10,6 - - 31 17 46 25 WSW 1000,6 40 18 0,0
18.08.2017 19:00:00 14,5 11,3 - - 35 19 - - WSW 1000,2 10 36 0,0
18.08.2017 18:00:00 13,5 11,9 - - 24 13 - - WSW 1000,2 10 0 1,2
18.08.2017 17:00:00 12,7 11,5 - - 18 10 - - W 1000,6 7 0 2,4
18.08.2017 16:00:00 13,3 11,1 - - 28 15 - - W 1000,3 10 0 0,2
18.08.2017 15:00:00 14,3 10,3 - - 28 15 - - WSW 999,9 10 0 0,0
18.08.2017 14:00:00 14,3 10,7 - - 31 17 50 27 WSW 999,8 10 6 0,0
18.08.2017 13:00:00 14,7 11,8 - - 28 15 - - WSW 999,8 10 0 0,0
18.08.2017 12:00:00 12,9 11,1 - - 34 18 48 26 WSW 999,7 24 0 0,2
18.08.2017 11:00:00 14,0 10,7 - - 29 16 50 27 W 999,6 10 18 0,0
18.08.2017 10:00:00 14,0 11,1 12,9 13,9 35 19 46 25 W 999,2 10 18 0,0
18.08.2017 09:00:00 12,9 11,5 - - 29 16 - - WSW 998,6 10 0 0,4
18.08.2017 08:00:00 12,5 11,9 - - 21 11 - - WSW 997,9 8 0 4,2
18.08.2017 07:00:00 13,6 13,3 - - 31 17 - - SW 998,1 2,5 0 0,0
18.08.2017 06:00:00 13,4 12,9 - - 5 3 - - S 998,5 10 0 0,0
18.08.2017 05:00:00 12,8 12,7 - - 5 3 - - S 999,0 8 0 1,6
18.08.2017 04:00:00 11,9 11,7 - - 5 3 - - N 999,6 10 0 0,4
18.08.2017 03:00:00 11,7 11,5 - - 4 2 - - NW 1000,5 9 0 0,4
18.08.2017 02:00:00 10,8 10,5 - - 4 2 - - NE 1001,1 10 0 0,0
18.08.2017 01:00:00 10,7 10,2 - - 4 2 - - NE 1001,7 10 - 0,0
18.08.2017 00:00:00 11,1 8,4 - - 4 2 - - WNW 1002,5 10 0 0,0

tt = temperature
td = dewpoint
tt -20cm = temperature -20cm
tt -100cm = temperature -100cm
ff = wind speed
fx = gusts
dd = wind direction
ppp = reduced air pressure
vv = visibility
sd = sunshine duration
rr = precipitation

Next stations